Starlink 30152

operational
NORAD ID: 56828 Int'l Des: 2023-079 Owner: SPXS Country: US Constellation: starlink
LEOCIRCULAR

About Starlink 30152

Description loading...

Live Position

Loading 3D Globe...

Upcoming Passes

Altitude History

Altitude vs Time

uPlot chart will show altitude changes over time

Two-Line Element Set

1 56828U 23079F 25351.84481277 -.00000040 00000-0 12088-4 0 9995
2 56828 43.0020 192.0253 0001126 263.3609 96.7105 15.02532064140574
Epoch: Dec 17, 2025 • Age: 21 hours

Current Status

Altitude 558.4 km
Velocity 7.58 km/s
Sub-Earth Point 6.19°N, 6.32°E
Launch Date Jun 4, 2023
Age 2.5 years
Type internet

Technical Details

Classification Payload
Mass 730.00 kg
Dry Mass 700.00 kg
Total Mass 730.00 kg
Length 0.30 m
Diameter 4.10 m
Span 29.00 m
Shape Box + pan
Manufacturer SPXS
Bus Type Starlink V2M
Phase Status In Orbit
Owner/State SPXS/US

Large Constellations

Loading constellations...